Location: Unspecified
(0.0000°N, 0.0000°E)
Time: 06:12:26
(UTC+00:00)

Fuji - Pass Details

Date: 30 November 2022
Orbit: 1479 x 1496 km, 50.0° (Epoch: 28 January)

Event Time Altitude Azimuth Distance (km) Brightness Sun altitude
Rises 20:56:20 0° 279° (W) 4,597 ? -42.7°
Reaches altitude 10° 21:01:47 10° 252° (WSW) 3,623 ? -43.9°
Maximum altitude 21:05:21 13° 229° (SW) 3,414 ? -44.6°
Drops below altitude 10° 21:08:56 10° 205° (SSW) 3,631 ? -45.4°
Sets 21:14:30 0° 178° (S) 4,618 ? -46.6°
